星链-5582 (STARLINK-5582 )

导读 | 豆包AI

STARLINK-5582是美国SpaceX公司旗下星链星座的一颗商用通信卫星,NORAD编号56777,于2023年5月31日由猎鹰9号火箭从美国西部试验靶场发射升空。卫星重约305千克,运行在近地轨道,轨道高度约570千米,倾角约70度,设计寿命约5-7年,主要承担全球宽带互联网通信任务,是星链全球组网过程中的组成部分。

Basic Information
目录编号:
56777
目录名称:
STARLINK-5582
国际标识:
2023-078L
轨道中心:
EARTH
卫星名称:
星链-5582
卫星全名:
星链-5582 (STARLINK-5582 )
卫星状态:
在轨 (已飞行1019 天)
发射日期:
2023-05-31 UTC
国别 :
美国 (US)
星等 :
--
Orbit Information
数据来源 国际轨道数据
星历时间: 2026-03-15T10:04:46+0800
19小时前
查看轨道信息
半长轴: 6950.189km
偏心率: 0.0002371
轨道倾角: 70.001°
近地点辐角 276.350°
升交点赤经 331.053°
平近点角 83.739°
近地点: 570.404km
远地点: 573.7km
周期: 96.107分钟
每日圈数: 14.983314
Detailed Information
固有亮度:
5
最大亮度:
2.5
卫星平台:
Starlink v1.5
覆盖范围:
全球
运营商:
太空探索技术公司
运营商所在国:
美国
制造商(研发单位):
太空探索技术公司
制造商所在国:
美国
使用方式:
暂无
Satellite Introduction
星链(Starlink)计划是由太空探索技术公司(SpaceX)提出的一个巨型低轨卫星互联网星座项目,计划在2019年至2024年间在太空搭建由约1.2万颗卫星组成的“星链”网络,其中1584颗将部署在地球上空550千米处的近地轨道,并从2020年开始工作。该卫星仍在工作。
2D Orbit Map
3D Orbit Map
Orbit Altitude Analysis Chart
Orbit Inclination Analysis Chart
Orbit Comprehensive Analysis Chart
View Comprehensive Chart